2021/07/18 23:40:04+0000,-40.08,-51.75,-30.47,-48.84,-53.56,-54.63
2021/07/18 23:41:04+0000,-41.16,-51.03,-30.42,-48.30,-54.25,-54.63
2021/07/18 23:41:56+0000,-39.20,-51.53,-30.40,-47.59,-53.91,-54.84
2021/07/18 23:42:48+0000,-40.77,-51.44,-30.40,-47.89,-54.19,-54.67
2021/07/18 23:43:40+0000,-40.25,-51.37,-26.57,-47.70,-54.17,-54.27
2021/07/18 23:44:32+0000,-40.18,-50.14,-26.54,-48.66,-53.78,-54.43
2021/07/18 23:45:24+0000,-40.39,-50.55,-30.97,-47.61,-53.47,-54.81
2021/07/18 23:46:16+0000,-39.35,-50.63,-10.01,-49.26,-53.83,-54.56
2021/07/18 23:47:08+0000,-40.57,-51.00,-30.65,-48.85,-54.27,-54.68
2021/07/18 23:48:00+0000,-39.87,-51.77,-30.59,-47.85,-54.09,-54.20
2021/07/18 23:48:52+0000,-40.06,-51.19,-26.42,-48.31,-54.16,-54.83
2021/07/18 23:49:44+0000,-40.02,-50.95,-30.18,-49.30,-53.97,-54.50
2021/07/18 23:50:36+0000,-39.67,-50.86,-30.78,-49.65,-54.22,-54.62
2021/07/18 23:51:37+0000,-40.72,-50.85,-30.66,-47.96,-54.07,-54.33
2021/07/18 23:52:29+0000,-39.86,-51.19,-30.69,-48.60,-53.96,-54.59
2021/07/18 23:53:21+0000,-40.16,-51.76,-30.55,-49.04,-53.89,-54.55
2021/07/18 23:54:13+0000,-39.66,-51.12,-30.25,-49.38,-54.64,-54.61
2021/07/18 23:55:05+0000,-39.23,-51.41,-30.37,-49.63,-54.08,-54.50
2021/07/18 23:55:57+0000,-40.68,-51.19,-26.52,-48.16,-54.67,-54.68
2021/07/18 23:56:49+0000,-39.30,-51.15,-26.25,-48.75,-53.99,-54.41
2021/07/18 23:57:41+0000,-40.65,-50.49,-29.31,-48.00,-54.21,-54.48
2021/07/18 23:58:33+0000,-40.48,-50.93,-29.87,-48.86,-54.42,-55.25
2021/07/18 23:59:25+0000,-40.33,-51.24,-26.85,-48.52,-54.86,-54.60
2021/07/19 00:00:17+0000,-39.27,-46.78,-26.80,-47.51,-54.75,-54.13
2021/07/19 00:01:25+0000,-39.72,-47.34,-26.80,-48.42,-54.22,-54.86
2021/07/19 00:02:17+0000,-40.24,-47.52,-30.01,-49.24,-54.30,-54.23
2021/07/19 00:03:09+0000,-40.10,-47.79,-30.52,-48.46,-55.07,-53.83
2021/07/19 00:04:01+0000,-39.69,-48.10,-29.97,-48.42,-53.85,-53.95
2021/07/19 00:04:53+0000,-40.29,-47.64,-30.23,-47.90,-53.75,-54.43
2021/07/19 00:05:45+0000,-39.85,-47.07,-30.80,-48.24,-53.52,-54.58
2021/07/19 00:06:37+0000,-40.40,-47.21,-30.74,-47.25,-54.80,-54.67
2021/07/19 00:07:29+0000,-39.96,-46.42,-30.36,-47.35,-54.80,-53.79
2021/07/19 00:08:21+0000,-38.74,-48.41,-30.11,-48.17,-54.16,-53.79
2021/07/19 00:09:13+0000,-38.63,-46.61,-30.47,-48.70,-53.91,-54.00
2021/07/19 00:10:06+0000,-40.30,-48.03,-30.17,-47.32,-53.61,-54.35
2021/07/19 00:11:05+0000,-40.31,-47.89,-30.26,-48.15,-53.86,-53.95
2021/07/19 00:11:57+0000,-38.83,-47.25,-30.26,-46.85,-53.74,-53.70
2021/07/19 00:12:50+0000,-39.94,-47.50,-30.61,-47.85,-53.83,-53.88
2021/07/19 00:13:42+0000,-39.19,-46.61,-29.92,-47.75,-54.24,-54.60
2021/07/19 00:14:34+0000,-39.13,-47.85,-30.55,-47.91,-53.88,-54.35
2021/07/19 00:15:26+0000,-38.29,-46.99,-30.12,-44.56,-53.59,-53.41
2021/07/19 00:16:18+0000,-38.97,-48.28,-30.29,-47.90,-53.34,-53.97
2021/07/19 00:17:10+0000,-38.66,-50.52,-30.28,-45.38,-54.22,-54.05
2021/07/19 00:18:02+0000,-38.43,-50.46,-30.59,-47.64,-53.76,-54.53
2021/07/19 00:18:54+0000,-38.68,-50.66,-29.93,-47.99,-54.66,-54.37
2021/07/19 00:19:46+0000,-38.66,-50.69,-30.61,-47.66,-53.66,-54.54
2021/07/19 00:20:38+0000,-38.67,-50.95,-30.43,-47.62,-53.98,-54.34
2021/07/19 00:21:38+0000,-39.15,-51.02,-30.64,-48.66,-54.36,-54.18
2021/07/19 00:22:30+0000,-39.51,-51.00,-29.91,-47.87,-53.95,-54.84
2021/07/19 00:23:22+0000,-39.01,-50.44,-29.97,-48.44,-53.49,-54.13
2021/07/19 00:24:14+0000,-38.70,-51.10,-30.37,-48.74,-54.28,-54.01
2021/07/19 00:25:06+0000,-38.47,-50.30,-30.66,-48.03,-54.01,-54.64
2021/07/19 00:25:58+0000,-38.96,-50.65,-30.79,-47.69,-53.86,-54.00
2021/07/19 00:26:50+0000,-38.60,-50.91,-30.63,-48.27,-53.78,-53.73
2021/07/19 00:27:42+0000,-38.08,-50.65,-30.27,-48.13,-54.04,-53.65
2021/07/19 00:28:34+0000,-38.64,-51.06,-30.22,-48.23,-54.47,-53.83
2021/07/19 00:29:26+0000,-38.22,-50.88,-30.06,-48.23,-53.74,-54.16
2021/07/19 00:30:18+0000,-38.68,-50.80,-30.09,-48.72,-54.04,-53.69
2021/07/19 00:31:19+0000,-39.41,-51.36,-30.41,-48.90,-54.23,-54.38
2021/07/19 00:32:11+0000,-38.91,-50.93,-30.01,-48.77,-54.13,-53.52
2021/07/19 00:33:03+0000,-39.53,-51.39,-30.12,-49.15,-53.70,-53.43
2021/07/19 00:33:55+0000,-38.28,-50.47,-29.67,-44.89,-54.08,-53.51
2021/07/19 00:34:47+0000,-37.52,-50.67,-29.94,-48.21,-53.29,-53.71
2021/07/19 00:35:39+0000,-38.29,-50.20,-29.89,-48.71,-54.43,-54.59
2021/07/19 00:36:31+0000,-38.72,-50.79,-30.24,-43.90,-54.02,-54.23
2021/07/19 00:37:23+0000,-38.29,-51.03,-30.19,-44.10,-53.42,-54.19
2021/07/19 00:38:15+0000,-38.10,-51.55,-30.29,-48.16,-53.58,-54.41
2021/07/19 00:39:07+0000,-37.46,-51.70,-30.36,-47.63,-54.25,-54.39
2021/07/19 00:40:00+0000,-39.17,-48.91,-29.58,-44.62,-54.09,-53.89
2021/07/19 00:41:00+0000,-38.31,-50.75,-30.37,-48.06,-53.95,-54.37
2021/07/19 00:41:52+0000,-39.42,-51.57,-26.99,-48.14,-53.50,-54.48
2021/07/19 00:42:44+0000,-39.32,-50.80,-30.57,-48.20,-53.77,-54.61
2021/07/19 00:43:36+0000,-40.12,-50.92,-30.44,-48.48,-53.66,-53.48
2021/07/19 00:44:28+0000,-41.32,-50.71,-30.55,-47.80,-53.59,-54.09
2021/07/19 00:45:20+0000,-40.39,-51.44,-29.93,-49.02,-52.96,-54.61
2021/07/19 00:46:12+0000,-40.68,-50.70,-30.84,-48.30,-53.31,-54.45
2021/07/19 00:47:04+0000,-38.70,-50.16,-30.50,-48.51,-53.88,-55.00
2021/07/19 00:47:56+0000,-40.54,-51.04,-30.33,-44.98,-53.38,-54.86
2021/07/19 00:48:48+0000,-39.06,-51.42,-30.30,-48.47,-53.49,-53.91
2021/07/19 00:49:41+0000,-40.67,-50.69,-30.77,-48.20,-53.77,-54.68
2021/07/19 00:50:33+0000,-40.12,-51.07,-30.80,-47.91,-53.81,-54.54
2021/07/19 00:51:30+0000,-39.63,-50.32,-29.93,-47.74,-53.26,-54.13
2021/07/19 00:52:22+0000,-40.21,-50.66,-30.26,-47.37,-54.08,-54.27
2021/07/19 00:53:15+0000,-39.59,-50.44,-30.22,-47.89,-53.85,-54.47
2021/07/19 00:54:07+0000,-39.26,-51.15,-30.55,-48.74,-54.76,-54.37
2021/07/19 00:54:59+0000,-40.17,-50.45,-30.13,-43.88,-54.32,-54.41
2021/07/19 00:55:51+0000,-39.63,-51.48,-30.27,-44.90,-54.90,-54.49
2021/07/19 00:56:43+0000,-40.45,-50.54,-30.30,-48.64,-54.71,-54.68
2021/07/19 00:57:35+0000,-40.08,-50.69,-30.76,-48.16,-54.12,-54.22
2021/07/19 00:58:27+0000,-39.81,-50.81,-29.81,-45.08,-54.43,-54.80
2021/07/19 00:59:19+0000,-39.32,-50.91,-29.81,-48.43,-54.48,-54.41
2021/07/19 01:00:11+0000,-40.31,-51.17,-30.17,-48.16,-54.47,-54.68
2021/07/19 01:01:09+0000,-40.75,-50.76,-30.54,-48.64,-55.43,-54.44
2021/07/19 01:02:02+0000,-40.15,-50.99,-29.72,-44.28,-54.70,-54.56
2021/07/19 01:02:54+0000,-39.86,-51.50,-30.05,-44.58,-54.52,-54.68
2021/07/19 01:03:46+0000,-39.00,-51.24,-30.37,-48.43,-54.85,-54.49
2021/07/19 01:04:38+0000,-39.63,-51.32,-30.36,-48.68,-54.29,-54.09
2021/07/19 01:05:30+0000,-40.21,-51.17,-30.11,-44.49,-53.65,-55.17
2021/07/19 01:06:22+0000,-39.26,-51.21,-30.19,-44.73,-55.21,-54.78
2021/07/19 01:07:14+0000,-38.94,-50.15,-29.98,-48.65,-53.74,-54.54
2021/07/19 01:08:06+0000,-41.06,-51.28,-30.48,-49.04,-55.11,-54.62
2021/07/19 01:08:58+0000,-39.32,-51.74,-30.17,-48.36,-54.93,-54.85
2021/07/19 01:09:50+0000,-39.57,-51.17,-29.97,-49.29,-55.22,-55.51
2021/07/19 01:10:42+0000,-39.93,-50.92,-29.91,-49.21,-55.27,-55.32
2021/07/19 01:11:47+0000,-41.05,-51.18,-30.73,-47.61,-55.01,-55.31
2021/07/19 01:12:39+0000,-40.72,-50.77,-30.08,-44.15,-54.82,-54.48
2021/07/19 01:13:31+0000,-40.11,-51.26,-30.01,-48.66,-54.74,-54.48
2021/07/19 01:14:23+0000,-40.32,-51.04,-30.16,-47.44,-54.74,-54.91
2021/07/19 01:15:15+0000,-39.90,-50.88,-30.52,-44.78,-53.83,-54.69
2021/07/19 01:16:07+0000,-39.01,-50.35,-30.55,-45.26,-54.31,-55.68
2021/07/19 01:16:59+0000,-40.53,-51.07,-30.05,-48.00,-55.03,-55.10
2021/07/19 01:17:51+0000,-40.73,-51.12,-30.76,-48.79,-54.85,-54.93
2021/07/19 01:18:43+0000,-40.31,-50.64,-30.41,-45.16,-53.94,-55.23
2021/07/19 01:19:36+0000,-41.11,-51.37,-30.89,-46.02,-54.70,-55.35
2021/07/19 01:20:28+0000,-41.46,-51.16,-30.45,-48.26,-54.81,-55.18
2021/07/19 01:21:29+0000,-41.20,-51.29,-30.37,-47.81,-55.11,-55.10
2021/07/19 01:22:21+0000,-40.55,-51.04,-30.21,-49.42,-54.46,-55.04
2021/07/19 01:23:13+0000,-40.58,-51.57,-30.24,-45.18,-55.40,-55.99
2021/07/19 01:24:05+0000,-40.37,-51.23,-29.98,-48.09,-55.26,-54.75
2021/07/19 01:24:57+0000,-40.16,-51.06,-30.48,-48.75,-54.75,-55.57
2021/07/19 01:25:49+0000,-40.86,-51.26,-30.19,-48.66,-54.46,-55.55
2021/07/19 01:26:41+0000,-40.31,-50.93,-30.10,-48.29,-54.53,-55.06
2021/07/19 01:27:33+0000,-40.80,-51.15,-30.41,-48.50,-54.59,-54.91
2021/07/19 01:28:25+0000,-39.96,-51.36,-30.29,-48.74,-54.94,-55.31
2021/07/19 01:29:17+0000,-39.80,-51.43,-29.99,-47.84,-54.59,-54.96
2021/07/19 01:30:09+0000,-39.20,-50.42,-30.01,-48.21,-55.25,-55.31
2021/07/19 01:31:09+0000,-39.31,-51.74,-29.63,-48.74,-55.05,-54.94
2021/07/19 01:32:01+0000,-40.79,-50.70,-30.32,-45.48,-54.54,-55.18
2021/07/19 01:32:53+0000,-40.62,-51.30,-29.90,-44.91,-54.04,-55.02
2021/07/19 01:33:45+0000,-38.98,-51.36,-29.94,-47.75,-55.55,-55.20
2021/07/19 01:34:37+0000,-40.40,-51.19,-30.23,-46.96,-54.46,-54.70
2021/07/19 01:35:29+0000,-40.40,-51.01,-30.24,-45.13,-54.54,-55.41
2021/07/19 01:36:21+0000,-39.67,-51.81,-30.20,-45.60,-54.96,-55.43
2021/07/19 01:37:13+0000,-40.06,-50.74,-30.40,-48.12,-54.41,-55.49
2021/07/19 01:38:05+0000,-39.23,-51.49,-30.01,-48.66,-54.39,-54.86
2021/07/19 01:38:57+0000,-41.25,-50.85,-29.76,-45.09,-54.96,-55.61
2021/07/19 01:39:50+0000,-39.90,-47.60,-30.02,-48.81,-54.74,-55.34
2021/07/19 01:40:42+0000,-38.74,-47.12,-29.99,-46.93,-54.38,-54.96
2021/07/19 01:41:44+0000,-39.95,-47.78,-30.06,-47.05,-54.78,-54.23
2021/07/19 01:42:36+0000,-39.70,-47.87,-30.12,-48.17,-54.42,-54.17
2021/07/19 01:43:28+0000,-38.70,-47.80,-29.77,-48.53,-54.49,-54.22
2021/07/19 01:44:21+0000,-40.43,-48.33,-29.85,-49.00,-54.33,-54.08
2021/07/19 01:45:13+0000,-39.33,-48.11,-30.45,-48.24,-54.48,-54.62
2021/07/19 01:46:05+0000,-39.20,-48.35,-30.56,-49.02,-54.65,-54.72
2021/07/19 01:46:57+0000,-38.64,-48.25,-29.70,-48.21,-54.56,-54.85
2021/07/19 01:47:49+0000,-39.94,-48.09,-30.13,-48.01,-54.58,-54.16
2021/07/19 01:48:41+0000,-39.71,-46.83,-29.78,-47.46,-54.79,-54.44
2021/07/19 01:49:33+0000,-39.88,-47.10,-30.80,-48.86,-55.11,-54.51
2021/07/19 01:50:25+0000,-38.86,-47.07,-30.11,-48.08,-54.17,-54.62
2021/07/19 01:51:26+0000,-40.11,-46.47,-29.97,-47.63,-54.79,-54.18
2021/07/19 01:52:18+0000,-39.12,-47.17,-30.61,-47.49,-54.47,-54.12
2021/07/19 01:53:10+0000,-39.08,-47.45,-29.81,-47.46,-55.10,-54.33
2021/07/19 01:54:02+0000,-39.39,-46.38,-30.57,-47.21,-54.62,-54.33
2021/07/19 01:54:54+0000,-39.93,-46.74,-29.94,-46.98,-54.13,-54.06
2021/07/19 01:55:46+0000,-39.83,-47.25,-29.69,-48.56,-54.30,-53.94
2021/07/19 01:56:38+0000,-38.55,-47.06,-30.09,-49.11,-54.13,-54.58
2021/07/19 01:57:30+0000,-38.63,-46.44,-30.44,-47.50,-55.10,-54.63
2021/07/19 01:58:22+0000,-38.75,-48.93,-30.03,-48.40,-54.79,-54.71
2021/07/19 01:59:14+0000,-38.93,-46.55,-30.53,-47.50,-54.18,-54.57
2021/07/19 02:00:07+0000,-37.83,-48.06,-29.92,-48.37,-54.38,-54.30
2021/07/19 02:01:08+0000,-39.33,-46.75,-30.35,-47.95,-54.26,-54.28
2021/07/19 02:02:00+0000,-40.51,-46.51,-29.87,-48.35,-53.88,-54.61
2021/07/19 02:02:52+0000,-40.94,-48.66,-30.04,-48.84,-53.93,-54.28
2021/07/19 02:03:44+0000,-42.21,-47.08,-29.68,-46.99,-54.36,-54.30
2021/07/19 02:04:36+0000,-43.31,-48.15,-30.07,-48.35,-55.05,-54.32
2021/07/19 02:05:28+0000,-42.59,-46.73,-29.70,-48.11,-54.43,-54.63
2021/07/19 02:06:20+0000,-42.45,-49.21,-30.27,-48.63,-54.92,-54.65
2021/07/19 02:07:12+0000,-42.21,-47.31,-30.46,-48.56,-54.43,-53.78
2021/07/19 02:08:04+0000,-40.08,-48.23,-29.90,-49.66,-54.91,-54.56
2021/07/19 02:08:56+0000,-39.49,-47.41,-30.08,-48.85,-54.63,-55.27
2021/07/19 02:09:49+0000,-39.99,-47.53,-29.96,-48.97,-54.73,-54.34
2021/07/19 02:10:41+0000,-39.37,-46.43,-29.87,-48.36,-54.59,-54.70
2021/07/19 02:11:41+0000,-40.76,-48.32,-30.02,-47.95,-54.65,-54.74
2021/07/19 02:12:33+0000,-39.88,-47.02,-29.90,-48.48,-54.69,-54.58
2021/07/19 02:13:25+0000,-40.20,-47.70,-30.63,-48.65,-54.19,-54.62
2021/07/19 02:14:17+0000,-40.31,-48.15,-30.63,-48.36,-54.73,-54.84
2021/07/19 02:15:09+0000,-39.81,-46.93,-30.07,-48.38,-55.24,-54.53
2021/07/19 02:16:01+0000,-39.86,-46.49,-30.22,-48.25,-54.22,-55.02
2021/07/19 02:16:53+0000,-40.23,-47.89,-29.90,-48.36,-54.42,-54.96
2021/07/19 02:17:45+0000,-40.13,-47.00,-30.10,-47.98,-53.79,-54.79
2021/07/19 02:18:37+0000,-39.96,-47.96,-30.05,-48.67,-54.38,-55.19
2021/07/19 02:19:29+0000,-39.88,-47.12,-30.82,-48.92,-54.38,-55.24
2021/07/19 02:20:21+0000,-38.61,-48.66,-31.07,-47.99,-54.41,-55.42
2021/07/19 02:21:22+0000,-40.20,-47.44,-29.64,-48.03,-54.99,-55.86
2021/07/19 02:22:14+0000,-40.53,-46.81,-30.34,-49.15,-54.40,-54.88
2021/07/19 02:23:06+0000,-39.63,-47.22,-30.22,-48.91,-54.02,-54.74
2021/07/19 02:23:58+0000,-40.26,-46.88,-30.59,-47.80,-54.39,-54.78
2021/07/19 02:24:50+0000,-39.41,-48.12,-30.06,-48.94,-54.74,-54.91
2021/07/19 02:25:42+0000,-39.18,-48.03,-29.54,-48.76,-55.30,-54.76
2021/07/19 02:26:34+0000,-40.09,-46.97,-30.53,-48.31,-54.72,-55.07
2021/07/19 02:27:26+0000,-40.73,-46.73,-30.03,-48.88,-54.65,-54.86
2021/07/19 02:28:18+0000,-40.07,-46.48,-29.86,-49.23,-55.12,-54.94
2021/07/19 02:29:10+0000,-39.32,-46.41,-30.23,-49.08,-53.79,-55.32
2021/07/19 02:30:03+0000,-42.62,-46.89,-29.80,-49.44,-54.54,-55.18
2021/07/19 02:31:03+0000,-40.21,-46.73,-29.65,-49.45,-54.79,-54.36
2021/07/19 02:31:55+0000,-42.16,-47.69,-30.07,-48.89,-54.78,-54.86
2021/07/19 02:32:47+0000,-41.97,-46.83,-30.16,-47.90,-54.68,-54.61
2021/07/19 02:33:39+0000,-40.17,-47.63,-29.76,-48.13,-54.43,-54.89
2021/07/19 02:34:31+0000,-40.35,-48.48,-30.22,-47.70,-54.70,-55.38
2021/07/19 02:35:23+0000,-40.75,-49.01,-30.47,-48.18,-54.61,-54.87
2021/07/19 02:36:15+0000,-40.12,-48.53,-30.21,-48.66,-54.78,-55.15
2021/07/19 02:37:07+0000,-40.86,-47.33,-30.06,-47.93,-53.84,-54.26
2021/07/19 02:37:59+0000,-42.28,-46.75,-30.23,-48.91,-54.83,-54.90
2021/07/19 02:38:51+0000,-39.57,-49.38,-30.07,-48.72,-54.45,-54.55
2021/07/19 02:39:43+0000,-40.82,-47.65,-29.66,-48.62,-54.44,-54.34
2021/07/19 02:40:35+0000,-41.40,-48.45,-30.25,-49.45,-54.55,-54.74
2021/07/19 02:41:36+0000,-40.34,-48.33,-30.24,-48.98,-54.45,-54.13
2021/07/19 02:42:28+0000,-40.60,-47.41,-30.57,-47.61,-54.02,-54.57
2021/07/19 02:43:20+0000,-40.88,-46.48,-29.67,-48.54,-53.68,-54.92
2021/07/19 02:44:12+0000,-40.74,-47.82,-29.91,-48.20,-54.24,-54.72
2021/07/19 02:45:04+0000,-41.36,-48.11,-30.18,-49.37,-54.58,-54.32
2021/07/19 02:45:56+0000,-41.86,-47.21,-30.38,-47.22,-53.93,-55.06
2021/07/19 02:46:48+0000,-42.78,-46.92,-29.71,-47.03,-54.35,-54.26
2021/07/19 02:47:40+0000,-42.86,-47.76,-29.80,-47.02,-54.24,-54.72
2021/07/19 02:48:32+0000,-42.35,-48.33,-29.59,-47.37,-54.22,-54.53
2021/07/19 02:49:24+0000,-42.65,-47.43,-30.10,-48.03,-53.85,-54.28
2021/07/19 02:50:17+0000,-42.00,-46.86,-29.35,-47.98,-54.42,-54.75
2021/07/19 02:51:17+0000,-40.03,-47.72,-30.24,-47.00,-54.58,-54.69
2021/07/19 02:52:09+0000,-41.92,-46.59,-29.42,-47.60,-54.32,-54.20
2021/07/19 02:53:01+0000,-43.28,-45.98,-29.45,-48.09,-54.30,-55.23
2021/07/19 02:53:53+0000,-40.91,-47.13,-29.52,-47.53,-53.85,-54.49
2021/07/19 02:54:45+0000,-41.97,-47.32,-29.37,-48.10,-54.83,-55.16
2021/07/19 02:55:37+0000,-41.27,-47.19,-29.07,-48.28,-54.90,-54.88
2021/07/19 02:56:29+0000,-41.25,-47.56,-29.45,-47.27,-54.28,-54.28
2021/07/19 02:57:21+0000,-39.21,-48.12,-30.02,-48.70,-53.94,-54.19
2021/07/19 02:58:13+0000,-42.10,-50.71,-29.67,-47.29,-55.38,-54.67
2021/07/19 02:59:05+0000,-41.24,-48.51,-29.89,-48.80,-54.87,-54.47
2021/07/19 02:59:57+0000,-41.48,-50.14,-29.77,-46.84,-54.72,-54.72
2021/07/19 03:00:49+0000,-41.98,-50.12,-29.99,-49.03,-54.31,-54.92
2021/07/19 03:01:51+0000,-39.63,-51.25,-29.83,-47.05,-54.36,-55.05
2021/07/19 03:02:43+0000,-41.25,-49.57,-29.54,-47.11,-54.62,-54.68
2021/07/19 03:03:35+0000,-41.04,-51.29,-30.40,-48.39,-54.57,-54.54
2021/07/19 03:04:27+0000,-40.40,-47.65,-30.26,-47.37,-53.83,-55.25
2021/07/19 03:05:19+0000,-41.61,-48.30,-30.10,-48.29,-53.50,-55.45
2021/07/19 03:06:11+0000,-41.12,-49.46,-29.45,-44.93,-54.69,-54.82
2021/07/19 03:07:03+0000,-40.25,-50.26,-29.53,-48.66,-54.63,-54.66
2021/07/19 03:07:55+0000,-40.86,-50.15,-30.83,-47.73,-55.07,-54.67
2021/07/19 03:08:47+0000,-41.82,-48.77,-30.16,-47.55,-54.79,-55.41
2021/07/19 03:09:39+0000,-41.84,-49.03,-30.06,-48.03,-55.18,-54.53
2021/07/19 03:10:31+0000,-41.92,-49.92,-30.24,-47.50,-54.53,-54.64
2021/07/19 03:11:31+0000,-40.12,-49.93,-30.00,-47.77,-54.25,-55.59
2021/07/19 03:12:23+0000,-41.54,-49.89,-30.36,-47.00,-54.80,-54.81
2021/07/19 03:13:15+0000,-41.12,-49.83,-30.03,-44.64,-54.21,-54.68
2021/07/19 03:14:07+0000,-40.68,-49.46,-30.38,-46.70,-54.55,-55.37
2021/07/19 03:15:00+0000,-41.41,-49.13,-30.33,-47.79,-55.09,-54.94
2021/07/19 03:15:52+0000,-41.82,-50.46,-29.81,-47.56,-55.06,-54.38
2021/07/19 03:16:44+0000,-40.23,-49.59,-30.33,-46.97,-54.63,-55.15
2021/07/19 03:17:36+0000,-41.63,-50.70,-29.02,-43.68,-55.45,-55.24
2021/07/19 03:18:28+0000,-42.13,-49.06,-30.71,-46.33,-54.95,-54.92
2021/07/19 03:19:20+0000,-41.37,-48.43,-30.20,-47.52,-55.24,-54.96
2021/07/19 03:20:12+0000,-40.31,-48.85,-30.51,-45.71,-54.94,-55.05
2021/07/19 03:21:13+0000,-41.71,-50.45,-29.94,-43.80,-54.31,-54.48
2021/07/19 03:22:05+0000,-42.23,-48.35,-30.30,-47.72,-54.17,-54.68
2021/07/19 03:22:57+0000,-38.15,-46.32,-30.33,-45.06,-55.26,-54.75
2021/07/19 03:23:49+0000,-38.29,-47.89,-29.65,-48.20,-54.86,-54.38
2021/07/19 03:24:41+0000,-43.35,-48.25,-30.00,-43.84,-55.11,-54.38
2021/07/19 03:25:33+0000,-42.85,-48.22,-30.19,-47.01,-54.52,-55.22
2021/07/19 03:26:25+0000,-42.56,-49.38,-30.51,-45.97,-53.92,-54.59
2021/07/19 03:27:17+0000,-42.48,-47.82,-30.10,-43.13,-54.61,-54.38
2021/07/19 03:28:09+0000,-42.83,-47.32,-29.55,-43.57,-55.01,-54.30
2021/07/19 03:29:01+0000,-42.63,-48.49,-29.88,-46.39,-54.58,-54.56
2021/07/19 03:29:53+0000,-41.25,-49.11,-30.09,-45.30,-54.48,-54.63
2021/07/19 03:30:45+0000,-42.89,-47.51,-29.90,-44.20,-54.78,-54.83
2021/07/19 03:31:46+0000,-42.46,-49.61,-30.13,-43.76,-54.41,-54.30
2021/07/19 03:32:38+0000,-41.63,-50.00,-29.45,-43.87,-53.85,-54.81
2021/07/19 03:33:30+0000,-42.46,-47.20,-30.27,-45.97,-53.92,-54.78
2021/07/19 03:34:22+0000,-41.94,-51.20,-30.44,-45.06,-55.27,-54.28
2021/07/19 03:35:14+0000,-42.36,-48.66,-29.70,-46.66,-54.05,-54.71
2021/07/19 03:36:06+0000,-42.03,-51.31,-30.33,-44.27,-54.29,-54.50
2021/07/19 03:36:58+0000,-41.38,-48.48,-30.16,-45.56,-54.65,-54.60
2021/07/19 03:37:50+0000,-42.71,-48.78,-29.98,-47.34,-54.42,-54.34
2021/07/19 03:38:42+0000,-41.99,-47.80,-29.85,-43.77,-54.42,-54.69
2021/07/19 03:39:34+0000,-41.78,-47.90,-30.16,-47.46,-54.26,-54.33
2021/07/19 03:40:26+0000,-37.62,-47.70,-29.84,-44.91,-54.88,-54.06
2021/07/19 03:41:26+0000,-42.49,-47.96,-29.78,-45.25,-54.23,-54.00
2021/07/19 03:42:18+0000,-42.27,-47.95,-29.37,-47.09,-54.10,-54.59
2021/07/19 03:43:11+0000,-42.02,-45.54,-29.45,-42.99,-54.41,-54.30
2021/07/19 03:44:03+0000,-42.90,-47.90,-30.07,-46.08,-53.93,-54.40
2021/07/19 03:44:55+0000,-43.06,-48.29,-29.48,-45.37,-53.75,-54.93
2021/07/19 03:45:47+0000,-41.90,-45.04,-30.03,-41.62,-54.17,-54.94
2021/07/19 03:46:39+0000,-42.39,-49.68,-30.42,-40.35,-54.23,-55.05
2021/07/19 03:47:31+0000,-42.24,-48.97,-29.89,-44.68,-54.24,-54.05
2021/07/19 03:48:23+0000,-42.73,-49.80,-29.92,-46.03,-54.42,-54.29
2021/07/19 03:49:15+0000,-41.43,-47.78,-29.71,-42.25,-54.25,-54.72
2021/07/19 03:50:07+0000,-41.50,-49.94,-29.80,-41.23,-54.04,-54.54
2021/07/19 03:51:07+0000,-42.41,-50.74,-29.79,-40.51,-54.29,-54.99
2021/07/19 03:52:00+0000,-41.82,-48.81,-30.43,-45.08,-54.11,-54.69
2021/07/19 03:52:52+0000,-42.02,-50.25,-29.53,-45.60,-54.19,-54.52
2021/07/19 03:53:44+0000,-42.55,-48.87,-29.57,-43.77,-54.60,-54.85
2021/07/19 03:54:36+0000,-41.27,-49.31,-29.73,-46.84,-53.92,-54.57
2021/07/19 03:55:28+0000,-41.52,-47.78,-29.96,-46.00,-53.89,-54.82
2021/07/19 03:56:20+0000,-41.79,-46.26,-30.40,-47.34,-54.63,-54.65
2021/07/19 03:57:12+0000,-41.31,-47.05,-30.30,-45.23,-53.54,-54.78
2021/07/19 03:58:04+0000,-42.08,-47.66,-29.67,-45.47,-53.33,-54.92
2021/07/19 03:58:56+0000,-41.56,-47.80,-30.22,-46.28,-52.92,-54.29
2021/07/19 03:59:48+0000,-40.98,-46.90,-30.10,-45.41,-52.63,-55.08
2021/07/19 04:00:40+0000,-40.72,-47.82,-29.87,-46.23,-53.76,-55.29
2021/07/19 04:01:42+0000,-37.88,-49.05,-29.84,-46.14,-53.42,-54.22
2021/07/19 04:02:34+0000,-41.52,-47.82,-29.94,-47.63,-54.08,-55.29
2021/07/19 04:03:26+0000,-41.76,-47.55,-30.81,-45.58,-53.69,-54.61
2021/07/19 04:04:18+0000,-41.56,-49.13,-30.04,-47.21,-53.54,-54.88
2021/07/19 04:05:10+0000,-40.45,-47.26,-29.75,-46.47,-54.56,-55.14
2021/07/19 04:06:02+0000,-41.71,-47.61,-30.62,-43.69,-54.13,-55.19
2021/07/19 04:06:54+0000,-41.54,-49.08,-30.06,-46.29,-54.41,-54.72
2021/07/19 04:07:46+0000,-41.53,-48.82,-30.95,-44.44,-53.04,-55.32
2021/07/19 04:08:38+0000,-41.17,-49.47,-30.51,-44.88,-53.63,-54.75
2021/07/19 04:09:30+0000,-41.51,-48.34,-30.65,-46.65,-53.47,-55.07
2021/07/19 04:10:22+0000,-41.00,-47.33,-29.77,-46.32,-53.73,-55.61
2021/07/19 04:11:23+0000,-35.02,-47.71,-31.41,-47.13,-53.49,-55.31
2021/07/19 04:12:15+0000,-40.85,-47.16,-30.68,-42.68,-53.61,-54.90
2021/07/19 04:13:07+0000,-41.52,-48.77,-31.00,-44.82,-53.64,-55.45
2021/07/19 04:13:59+0000,-36.16,-48.73,-29.91,-42.42,-52.87,-55.08
2021/07/19 04:14:51+0000,-40.95,-50.68,-31.01,-44.31,-53.10,-55.70
2021/07/19 04:15:43+0000,-41.29,-48.83,-31.25,-46.58,-53.69,-55.12
2021/07/19 04:16:35+0000,-39.69,-50.65,-30.46,-43.10,-54.31,-55.21
2021/07/19 04:17:27+0000,-41.53,-49.18,-30.64,-42.54,-54.06,-54.76
2021/07/19 04:18:20+0000,-40.78,-49.17,-30.54,-47.47,-54.35,-54.95
2021/07/19 04:19:12+0000,-40.59,-49.29,-30.41,-43.74,-53.97,-54.98
2021/07/19 04:20:04+0000,-41.43,-49.59,-29.66,-46.87,-54.24,-55.27
2021/07/19 04:21:04+0000,-39.59,-50.74,-30.05,-46.86,-53.98,-54.91
2021/07/19 04:21:56+0000,-40.88,-50.03,-30.25,-46.07,-54.17,-54.98
2021/07/19 04:22:48+0000,-40.96,-49.07,-30.53,-47.01,-54.54,-55.22
2021/07/19 04:23:40+0000,-40.46,-48.90,-30.65,-44.42,-54.00,-54.87
2021/07/19 04:24:32+0000,-41.42,-49.92,-30.75,-46.79,-54.01,-54.89
2021/07/19 04:25:24+0000,-40.87,-50.16,-30.50,-45.71,-54.08,-54.99
2021/07/19 04:26:16+0000,-41.58,-48.62,-30.23,-44.98,-53.82,-54.88
2021/07/19 04:27:08+0000,-41.75,-47.11,-30.13,-45.24,-54.73,-55.23
2021/07/19 04:28:00+0000,-42.17,-50.14,-30.44,-46.94,-54.43,-54.92
2021/07/19 04:28:52+0000,-41.21,-50.59,-30.00,-46.00,-54.32,-54.41
2021/07/19 04:29:44+0000,-41.48,-48.20,-31.24,-43.63,-54.42,-55.35
2021/07/19 04:30:36+0000,-41.26,-50.92,-30.40,-43.31,-54.50,-55.00
2021/07/19 04:31:38+0000,-41.42,-50.54,-30.04,-44.82,-54.77,-55.29
2021/07/19 04:32:30+0000,-40.47,-50.77,-30.46,-46.61,-54.66,-55.80
2021/07/19 04:33:22+0000,-42.06,-50.84,-30.49,-46.80,-53.82,-54.94
2021/07/19 04:34:14+0000,-41.16,-48.84,-30.50,-45.60,-54.54,-55.07
2021/07/19 04:35:06+0000,-41.83,-51.57,-30.36,-46.84,-54.93,-55.38
2021/07/19 04:35:58+0000,-41.32,-50.08,-30.50,-45.76,-54.65,-54.39
2021/07/19 04:36:50+0000,-41.98,-48.80,-30.59,-47.26,-53.82,-55.70
2021/07/19 04:37:42+0000,-40.76,-46.15,-30.69,-46.35,-53.98,-55.01
2021/07/19 04:38:34+0000,-41.40,-49.67,-30.38,-46.75,-53.21,-55.39
2021/07/19 04:39:26+0000,-41.23,-49.68,-29.95,-46.61,-52.79,-55.52
2021/07/19 04:40:18+0000,-40.66,-45.48,-30.31,-46.62,-53.21,-55.25
2021/07/19 04:41:19+0000,-39.98,-43.47,-30.17,-46.96,-53.28,-55.74
2021/07/19 04:42:11+0000,-40.45,-42.19,-30.04,-46.17,-53.45,-55.03
2021/07/19 04:43:03+0000,-40.93,-49.46,-30.14,-46.81,-53.28,-55.13
2021/07/19 04:43:55+0000,-40.51,-49.73,-29.95,-47.16,-53.49,-55.11
2021/07/19 04:44:47+0000,-41.66,-44.84,-30.10,-46.92,-53.47,-54.74
2021/07/19 04:45:39+0000,-40.62,-48.29,-30.27,-47.03,-54.14,-55.61
2021/07/19 04:46:31+0000,-40.83,-49.25,-30.11,-46.34,-54.10,-54.87
2021/07/19 04:47:23+0000,-41.57,-51.04,-30.08,-46.76,-54.04,-55.40
2021/07/19 04:48:15+0000,-41.60,-46.69,-30.23,-46.83,-54.51,-55.01
2021/07/19 04:49:07+0000,-38.04,-51.39,-29.84,-46.42,-54.42,-54.97
2021/07/19 04:50:00+0000,-41.07,-49.49,-30.34,-45.48,-53.87,-55.61
2021/07/19 04:51:01+0000,-40.43,-49.96,-30.19,-46.11,-53.43,-55.42
2021/07/19 04:51:53+0000,-41.01,-51.32,-30.63,-45.75,-53.79,-55.15
2021/07/19 04:52:45+0000,-39.67,-48.57,-30.27,-45.95,-53.81,-55.04
2021/07/19 04:53:37+0000,-39.97,-50.83,-30.19,-45.51,-53.71,-54.49
2021/07/19 04:54:29+0000,-40.25,-47.42,-30.38,-46.10,-53.92,-54.24